Regional Weather Roundup
Issued by NWS Wilmington, NC

Home | Current Version | Previous Version | Text Only | Print | Product List | Glossary On
Versions: 1 2 3 4 5 6 7 8 9 10 11 12 13 14 15 16 17 18 19 20 21 22 23 24 25 26 27 28 29 30 31 32 33 34 35 36
000
ASUS42 KILM 230910
RWRILM
RWRILM
REGIONAL HOURLY WEATHER ROUNDUP
NATIONAL WEATHER SERVICE WILMINGTON NC
500 AM EDT THU OCT 23 2014

NOTE: "FAIR" INDICATES FEW OR NO CLOUDS BELOW 12,000 FEET WITH NO
SIGNIFICANT WEATHER AND/OR OBSTRUCTIONS TO VISIBILITY.

...............WFO WILMINGTON COUNTY WARNING AREA...............

......COASTAL NC AND SC COUNTIES......

CITY           SKY/WX    TMP DP  RH WIND       PRES   REMARKS
WILMINGTON     CLEAR     48  42  80 NW8       29.99F
SOUTHPORT      CLEAR     48  42  79 N7        30.00S
N MYRTLE BEACH CLEAR     47  43  86 NW6       30.01F
MYRTLE BEACH   CLEAR     48  41  76 NW7       30.02S

......INLAND NC AND SC COUNTIES.......

CITY           SKY/WX    TMP DP  RH WIND       PRES   REMARKS
LUMBERTON      CLEAR     44  40  85 W3        30.02S
ELIZABETHTOWN  CLEAR     49  42  78 NW5       30.01S
WHITEVILLE     CLEAR     47  42  82 CALM      30.01S
FLORENCE       CLEAR     47  40  76 N6        30.04S
DARLINGTON     CLEAR     46  37  71 NW6       30.05S

....................REST OF NORTH CAROLINA......................

.........EASTERN NC.........

CITY           SKY/WX    TMP DP  RH WIND       PRES   REMARKS
CAPE HATTERAS  CLEAR     54  48  80 NW15G22   29.89R
JACKSONVILLE   CLEAR     46  39  76 W3        29.99S
MOREHEAD CITY  CLEAR     52  47  83 NW15      29.96R
KENANSVILLE    CLEAR     47  42  84 W3        30.00F
NEW BERN       CLEAR     52  44  74 W8        29.98R
ELIZABETH CITY MOCLDY    54  43  66 NW14G21   29.89S

.........CENTRAL NC.........

CITY           SKY/WX    TMP DP  RH WIND       PRES   REMARKS
RALEIGH DURHAM CLEAR     46  40  79 CALM      30.00F
ROCKY MOUNT    CLEAR     48  42  80 W6        29.97F
ROANOKE RAPIDS NOT AVBL
FAYETTEVILLE   CLEAR     48  41  76 NW5       30.02R
HOFFMAN        CLEAR     43  41  93 NW5       30.05S

.........WESTERN NC.........

CITY           SKY/WX    TMP DP  RH WIND       PRES   REMARKS
CHARLOTTE      CLEAR     43  37  79 NW5       30.07R
GREENSBORO     CLEAR     44  39  82 NW6       30.03S
HICKORY        NOT AVBL
BOONE          NOT AVBL
ASHEVILLE      NOT AVBL

.....................REST OF SOUTH CAROLINA.....................

.........EASTERN SC.........

CITY           SKY/WX    TMP DP  RH WIND       PRES   REMARKS
CHARLESTON     CLEAR     48  43  82 CALM      30.05R
BEAUFORT MCAS  CLEAR     47  44  90 NW3       30.06R
HILTON HEAD    NOT AVBL

.........CENTRAL SC.........

CITY           SKY/WX    TMP DP  RH WIND       PRES   REMARKS
COLUMBIA       CLEAR     50  39  66 NW3       30.07S
ORANGEBURG     CLEAR     45  41  86 N5        30.07S
SUMTER SHAW    CLEAR     45  42  86 W5        30.04F

.........WESTERN SC.........

CITY           SKY/WX    TMP DP  RH WIND       PRES   REMARKS
GREENVILLE     NOT AVBL
ROCK HILL      CLEAR     39  37  92 CALM      30.07S
ANDERSON       CLEAR     39  37  92 CALM      30.10S
CLEMSON        NOT AVBL
GREENWOOD      CLEAR     39  37  92 CALM      30.11S


...................COASTAL AND OFFSHORE REPORTS..................

................LOCAL PIERS AND NC RESERVE................


STATION/POSITION TIME  SKY/WX   TEMP    WIND        PRES    VSBY
                                AIR SEA DIR/SP/G
                 (UTC)          (F)     (DEG/KT/KT) (MB)    (MI)
JOHNY MRCER PIER 0900            51 73  320/ 10/ 13 1014.9S
NC RESRV MASNBRO 0800            51     190/  2     1015.0S
OCEAN CREST PIER 0900            50 71  310/ 11/ 13 1014.7S
SPRINGMAID  PIER 0900            49 70  310/  6/  8 1016.5R


................COASTAL AND OFFSHORE BUOYS................


STATION/POSITION TIME  SKY/WX   TEMP    WIND        PRES    VSBY
                                AIR SEA DIR/SP/G
                 (UTC)          (F)     (DEG/KT/KT) (MB)    (MI)
DIMNDSHOAL 41025 0900            59     300/ 21/ 27 1011.5R
WVE H/P(F/S)=  6/ 5 WND WVE H/P(F/S)=  5/ 5

CAPE LOOKOUT     0800            57     310/ 14/ 19 1013.9F
ONSLOW BAY 41036 0900            61 75  330/ 17/ 21 1013.8R
WVE H/P(F/S)=  4/ 5 WND WVE H/P(F/S)=  3/ 5

5 WRITEBCH 41038 0900            53 72  340/ 17/ 21   N/A
MASONBORO  41110 0900               72                N/A
WVE H/P(F/S)=  2/10 WND WVE H/P(F/S)=  2/10

WILM HARBR 41108 0900               72                N/A
WVE H/P(F/S)=  4/ 4 WND WVE H/P(F/S)=  3/ 4

27WRITEBCH 41037 0800            58 75  360/ 16/ 17 1014.6F
FRYING PAN 41013 0900            61 74  350/ 16/ 19 1015.5F
WVE H/P(F/S)=  4/ 5 WND WVE H/P(F/S)=  5/ 5

SUNST NRSH 41024 0800            53     340/ 14/ 16 1015.8F
CAPRS NRSH 41029 NOT AVBL
EDISTO     41004 0900            64 78  350/ 12/ 17 1015.8R
WVE H/P(F/S)=  4/ 5 WND WVE H/P(F/S)=  3/ 5 SWL H/P/D(F/S/D)=  2/ 8



..........OFFSHORE BUOYS BEYOND 100 NM OFFSHORE...........
.....IN A TRIANGLE---HAT TO BERMUDA TO BAHAMAS TO HAT.....


STATION/POSITION TIME  SKY/WX   TEMP    WIND        PRES    VSBY
                                AIR SEA DIR/SP/G
                 (UTC)          (F)     (DEG/KT/KT) (MB)    (MI)
150E HAT   41001 NOT AVBL
W BERMUDA  41048 0813            73 79  280/ 19/ 23 1009.2R
WVE H/P(F/S)=  7/ 7 WND WVE H/P(F/S)=  7/ 7 SWL H/P/D(F/S/D)=  2/350/15

ATLANTIC S 41049 0829            80 81  190/ 12/ 14 1013.5R
WVE H/P(F/S)=  3/ 8 WND WVE H/P(F/S)=  2/ 5 SWL H/P/D(F/S/D)=  3/ 80/ 8

E BAHAMAS  41046 0833            82 83  150/ 10/ 12 1012.7S
WVE H/P(F/S)=  3/ 9 WND WVE H/P(F/S)=  2/ 4 SWL H/P/D(F/S/D)=  3/ 80/ 9

NE BAHAMAS 41047 0805            80 82  250/ 12/ 14 1011.5R
WVE H/P(F/S)=  3/10 WND WVE H/P(F/S)=  2/ 4 SWL H/P/D(F/S/D)=  2/ 60/10

120E CANVRL41010 0900            73 81   30/ 12/ 17 1014.3F
WVE H/P(F/S)=  4/ 7 WND WVE H/P(F/S)=  3/ 5 SWL H/P/D(F/S/D)=  3/340/ 7


END



USA.gov is the U.S. government's official web portal to all federal, state and local government web resources and services.